Location: Brantley
(31.5822°N, 86.2569°W)
Time: 17:23:12
(UTC+00:00)

Injun/Solrad 3 - Pass Details

Date: 20 February 2026
Orbit: 871 x 985 km, 66.8° (Epoch: 11 March)

Event Time Altitude Azimuth Distance (km) Brightness Sun altitude
Rises 03:12:50 0° 316° (NW) 3,615 11.6 -46.5°
Reaches altitude 10° 03:15:56 10° 302° (WNW) 2,685 10.8 -47.2°
Enters shadow 03:17:24 15° 291° (WNW) 2,338 10.4 -47.5°
Maximum altitude 03:20:30 21° 255° (WSW) 1,999 - -48.1°
Drops below altitude 10° 03:25:07 10° 208° (SSW) 2,716 - -49.0°
Sets 03:28:19 0° 193° (SSW) 3,668 - -49.6°
